EW6341 Weather Reports


time (UTC)temp
C
wind
direction
speed
KPH
gust
KPH
rain 1hr
cm
rain 24hr
cm
rain mn
cm
humidity
%
barometer
mb
20260505090510 27 97 0.0 0.0 0.00 0.00 0.00 1 1010.7
20260505085731 28 97 0.0 0.0 0.00 0.00 0.00 1 1010.8
20260505085225 28 103 0.0 0.0 0.00 0.00 0.00 1 1010.8
20260505084723 28 98 0.0 0.0 0.00 0.00 0.00 1 1010.9
20260505084214 28 98 0.0 0.0 0.00 0.00 0.00 1 1010.9
20260505083939 27 95 0.0 0.0 0.00 0.00 0.00 1 1011.0
20260505083202 27 95 0.0 0.0 0.00 0.00 0.00 1 1010.9
20260505082927 27 94 0.0 0.0 0.00 0.00 0.00 1 1011.0
20260505082150 27 92 0.0 0.0 0.00 0.00 0.00 1 1011.0
20260505081916 27 91 0.0 0.0 0.00 0.00 0.00 1 1011.1
20260505081137 28 113 0.0 0.0 0.00 0.00 0.00 1 1011.2
20260505080903 28 119 0.0 0.0 0.00 0.00 0.00 1 1011.2
20260505080125 28 119 0.0 0.0 0.00 0.00 0.00 1 1011.3
20260505075620 28 119 0.0 0.0 0.00 0.00 0.00 1 1011.3
20260505075114 28 119 0.0 0.0 0.00 0.00 0.00 1 1011.3
20260505074608 28 119 0.0 0.0 0.00 0.00 0.00 1 1011.4
20260505074101 28 124 0.0 0.0 0.00 0.00 0.00 1 1011.2
20260505073556 28 129 0.0 0.0 0.00 0.00 0.00 1 1011.2
20260505073049 28 127 0.0 0.0 0.00 0.00 0.00 1 1011.2
20260505072544 28 117 0.0 0.0 0.00 0.00 0.00 1 1011.2
20260505072038 28 131 0.0 0.0 0.00 0.00 0.00 1 1011.1
20260505071532 28 128 0.0 0.0 0.00 0.00 0.00 1 1011.0
20260505071027 28 122 0.0 0.0 0.00 0.00 0.00 1 1011.1
20260505070520 28 113 0.0 0.0 0.00 0.00 0.00 1 1011.2
20260505070012 28 105 0.0 0.0 0.00 0.00 0.00 1 1011.2
20260505065508 28 115 0.0 0.0 0.00 0.00 0.00 1 1011.4
20260505065002 28 107 0.0 0.0 0.00 0.00 0.00 1 1011.5
20260505064456 28 123 0.0 0.0 0.00 0.00 0.00 1 1011.5
20260505063950 28 115 0.0 0.0 0.00 0.00 0.00 1 1011.5
20260505063443 28 121 0.0 0.0 0.00 0.00 0.00 1 1011.6
20260505062937 28 107 0.0 0.0 0.00 0.00 0.00 1 1011.7
20260505062431 28 122 0.0 0.0 0.00 0.00 0.00 1 1011.7
20260505061926 28 124 0.0 0.0 0.00 0.00 0.00 1 1011.7
20260505061420 28 115 0.0 0.0 0.00 0.00 0.00 1 1011.8
20260505060918 28 126 0.0 0.0 0.00 0.00 0.00 1 1012.0
20260505060651 28 131 0.0 0.0 0.00 0.00 0.00 1 1012.1
20260505055917 28 106 0.0 0.0 0.00 0.00 0.00 1 1012.1
20260505055648 28 101 0.0 0.0 0.00 0.00 0.00 1 1012.2
20260505054917 28 125 0.0 0.0 0.00 0.00 0.00 1 1012.3
20260505054417 28 124 0.0 0.0 0.00 0.00 0.00 1 1012.2
20260505053917 28 124 0.0 0.0 0.00 0.00 0.00 1 1012.2
20260505053417 28 127 0.0 0.0 0.00 0.00 0.00 1 1012.3
20260505053147 28 113 0.0 0.0 0.00 0.00 0.00 1 1012.4
20260505052418 28 120 0.0 0.0 0.00 0.00 0.00 1 1012.6
20260505051918 28 108 0.0 0.0 0.00 0.00 0.00 1 1012.8
20260505051418 28 112 0.0 0.0 0.00 0.00 0.00 1 1013.0
20260505051149 28 108 0.0 0.0 0.00 0.00 0.00 1 1013.0
20260505050649 28 102 0.0 0.0 0.00 0.00 0.00 1 1012.9
20260505040852 28 91 0.0 0.0 0.00 0.00 0.00 1 1013.0
20260505040345 28 97 0.0 0.0 0.00 0.00 0.00 1 1012.9
20260505035840 28 99 0.0 0.0 0.00 0.00 0.00 1 1013.0
20260505035334 28 99 0.0 0.0 0.00 0.00 0.00 1 1012.9
20260505034828 28 95 0.0 0.0 0.00 0.00 0.00 1 1012.8
20260505034322 28 122 0.0 0.0 0.00 0.00 0.00 1 1012.6
20260505033816 28 111 0.0 0.0 0.00 0.00 0.00 1 1012.5
20260505033310 28 92 0.0 0.0 0.00 0.00 0.00 1 1012.5
20260505032804 28 117 0.0 0.0 0.00 0.00 0.00 1 1012.5
20260505032258 28 111 0.0 0.0 0.00 0.00 0.00 1 1012.5
20260505031751 28 110 0.0 0.0 0.00 0.00 0.00 1 1012.5
20260505031246 28 101 0.0 0.0 0.00 0.00 0.00 1 1012.5
20260505030740 28 107 0.0 0.0 0.00 0.00 0.00 1 1012.4
20260505030232 28 103 0.0 0.0 0.00 0.00 0.00 1 1012.3
20260505025728 28 108 0.0 0.0 0.00 0.00 0.00 1 1012.2
20260505025219 28 121 0.0 0.0 0.00 0.00 0.00 1 1012.1
20260505024714 28 120 0.0 0.0 0.00 0.00 0.00 1 1012.1
20260505024208 28 103 0.0 0.0 0.00 0.00 0.00 1 1012.0
20260505023702 28 133 0.0 0.0 0.00 0.00 0.00 1 1011.7
20260505023159 28 114 0.0 0.0 0.00 0.00 0.00 1 1011.6
20260505022700 28 108 0.0 0.0 0.00 0.00 0.00 1 1011.5
20260505022159 28 120 0.0 0.0 0.00 0.00 0.00 1 1011.5
20260505021701 28 103 0.0 0.0 0.00 0.00 0.00 1 1011.5
20260505021159 28 98 0.0 0.0 0.00 0.00 0.00 1 1011.5
20260505020928 28 101 0.0 0.0 0.00 0.00 0.00 1 1011.4
20260505020427 28 105 0.0 0.0 0.00 0.00 0.00 1 1011.4
20260505015659 28 104 0.0 0.0 0.00 0.00 0.00 1 1011.3
20260505015153 28 117 0.0 0.0 0.00 0.00 0.00 1 1011.3
20260505014700 28 106 0.0 0.0 0.00 0.00 0.00 1 1011.3
20260505014151 28 91 0.0 0.0 0.00 0.00 0.00 1 1011.4
20260505013651 28 97 0.0 0.0 0.00 0.00 0.00 1 1011.4
20260505013150 28 107 0.0 0.0 0.00 0.00 0.00 1 1011.3
20260505012649 28 101 0.0 0.0 0.00 0.00 0.00 1 1011.2
20260505012146 28 82 0.0 0.0 0.00 0.00 0.00 1 1011.1
20260505011643 28 105 0.0 0.0 0.00 0.00 0.00 1 1011.1
20260505011144 28 86 0.0 0.0 0.00 0.00 0.00 1 1011.2
20260505010707 28 96 0.0 0.0 0.00 0.00 0.00 1 1011.2
20260505010644 28 94 0.0 0.0 0.00 0.00 0.00 1 1011.2
20260505005643 28 101 0.0 0.0 0.00 0.00 0.00 1 1011.1
20260505005137 28 101 0.0 0.0 0.00 0.00 0.00 1 1011.1
20260505004631 28 111 0.0 0.0 0.00 0.00 0.00 1 1011.1
20260505004124 28 104 0.0 0.0 0.00 0.00 0.00 1 1011.0
20260505003850 28 95 0.0 0.0 0.00 0.00 0.00 1 1011.0
20260505003113 28 96 0.0 0.0 0.00 0.00 0.00 1 1010.9
20260505002607 28 98 0.0 0.0 0.00 0.00 0.00 1 1011.0
20260505002101 28 96 0.0 0.0 0.00 0.00 0.00 1 1011.0
20260505001555 28 127 0.0 0.0 0.00 0.00 0.00 1 1010.9
20260505001049 28 110 0.0 0.0 0.00 0.00 0.00 1 1010.9
20260505000544 28 110 0.0 0.0 0.00 0.00 0.00 1 1010.9
20260505000036 28 96 0.0 0.0 0.00 0.00 0.00 1 1010.7
20260504235531 29 99 0.0 0.0 0.00 0.00 0.00 1 1010.7
20260504235023 29 94 0.0 0.0 0.00 0.00 0.00 1 1010.8
20260504234518 29 101 0.0 0.0 0.00 0.00 0.00 1 1010.8
20260504234014 29 113 0.0 0.0 0.00 0.00 0.00 1 1010.8
20260504233513 29 81 0.0 0.0 0.00 0.00 0.00 1 1010.8
20260504233015 29 103 0.0 0.0 0.00 0.00 0.00 1 1010.9
20260504232513 29 99 0.0 0.0 0.00 0.00 0.00 1 1010.9
20260504232015 30 115 0.0 0.0 0.00 0.00 0.00 1 1010.9
20260504231513 30 105 0.0 0.0 0.00 0.00 0.00 1 1011.0
20260504231012 30 72 0.0 0.0 0.00 0.00 0.00 1 1011.0
20260504230743 30 120 0.0 0.0 0.00 0.00 0.00 1 1010.8
20260504230013 30 69 0.0 0.0 0.00 0.00 0.00 1 1010.7
20260504225513 30 86 0.0 0.0 0.00 0.00 0.00 1 1010.7
20260504225013 30 91 0.0 0.0 0.00 0.00 0.00 1 1010.7
20260504224513 30 111 0.0 0.0 0.00 0.00 0.00 1 1010.7
20260504224027 30 92 0.0 0.0 0.00 0.00 0.00 1 1010.6
20260504224013 30 102 0.0 0.0 0.00 0.00 0.00 1 1010.7
20260504223014 30 67 0.0 0.0 0.00 0.00 0.00 1 1010.6
20260504222513 30 100 0.0 0.0 0.00 0.00 0.00 1 1010.5
20260504222014 30 110 0.0 0.0 0.00 0.00 0.00 1 1010.6
20260504221512 30 103 0.0 0.0 0.00 0.00 0.00 1 1010.7
20260504221013 30 58 0.0 0.0 0.00 0.00 0.00 1 1010.7
20260504220513 30 92 0.0 0.0 0.00 0.00 0.00 1 1010.6
20260504220248 30 101 0.0 0.0 0.00 0.00 0.00 1 1010.6
20260504215746 30 73 0.0 0.0 0.00 0.00 0.00 1 1010.5
20260504215011 30 111 0.0 0.0 0.00 0.00 0.00 1 1010.4
20260504214511 30 113 0.0 0.0 0.00 0.00 0.00 1 1010.4
20260504214010 30 96 0.0 0.0 0.00 0.00 0.00 1 1010.4
20260504213510 31 86 0.0 0.0 0.00 0.00 0.00 1 1010.6
20260504213011 31 72 0.0 0.0 0.00 0.00 0.00 1 1010.7
20260504212512 31 59 0.0 0.0 0.00 0.00 0.00 1 1010.7
20260504212012 31 90 0.0 0.0 0.00 0.00 0.00 1 1010.7
20260504211509 31 83 0.0 0.0 0.00 0.00 0.00 1 1010.9
20260504211241 31 51 0.0 0.0 0.00 0.00 0.00 1 1011.0
20260504210739 31 84 0.0 0.0 0.00 0.00 0.00 1 1010.9
20260504210007 31 86 0.0 0.0 0.00 0.00 0.00 1 1011.0
20260504205507 31 106 0.0 0.0 0.00 0.00 0.00 1 1011.0
20260504205007 31 89 0.0 0.0 0.00 0.00 0.00 1 1011.1
20260504204507 31 101 0.0 0.0 0.00 0.00 0.00 1 1011.1
20260504204008 31 109 0.0 0.0 0.00 0.00 0.00 1 1011.1
20260504203507 31 53 0.0 0.0 0.00 0.00 0.00 1 1011.2
20260504203009 31 51 0.0 0.0 0.00 0.00 0.00 1 1011.4
20260504202504 31 59 0.0 0.0 0.00 0.00 0.00 1 1011.4
20260504202004 31 67 0.0 0.0 0.00 0.00 0.00 1 1011.5
20260504201504 31 89 0.0 0.0 0.00 0.00 0.00 1 1011.5
20260504201003 31 50 0.0 0.0 0.00 0.00 0.00 1 1011.6
20260504200504 31 47 0.0 0.0 0.00 0.00 0.00 1 1011.6
20260504200003 31 94 0.0 0.0 0.00 0.00 0.00 1 1011.7
20260504195504 31 82 0.0 0.0 0.00 0.00 0.00 1 1011.7
20260504195236 31 61 0.0 0.0 0.00 0.00 0.00 1 1011.8
20260504194736 31 86 0.0 0.0 0.00 0.00 0.00 1 1011.9
20260504193958 31 67 0.0 0.0 0.00 0.00 0.00 1 1011.9
20260504193443 31 98 0.0 0.0 0.00 0.00 0.00 1 1011.9
20260504192943 31 107 0.0 0.0 0.00 0.00 0.00 1 1011.9
20260504192443 31 124 0.0 0.0 0.00 0.00 0.00 1 1011.9
20260504191943 31 89 0.0 0.0 0.00 0.00 0.00 1 1012.0
20260504191442 31 94 0.0 0.0 0.00 0.00 0.00 1 1012.1
20260504191217 31 105 0.0 0.0 0.00 0.00 0.00 1 1012.2
20260504190712 31 70 0.0 0.0 0.00 0.00 0.00 1 1012.3
20260504185940 31 100 0.0 0.0 0.00 0.00 0.00 1 1012.2
20260504185440 31 97 0.0 0.0 0.00 0.00 0.00 1 1012.3
20260504184939 31 83 0.0 0.0 0.00 0.00 0.00 1 1012.5
20260504184438 31 113 0.0 0.0 0.00 0.00 0.00 1 1012.5
20260504184209 31 66 0.0 0.0 0.00 0.00 0.00 1 1012.7
20260504183432 31 72 0.0 0.0 0.00 0.00 0.00 1 1012.7
20260504183200 32 112 0.0 0.0 0.00 0.00 0.00 1 1012.8
20260504183036 32 75 0.0 0.0 0.00 0.00 0.00 1 1012.8
20260504181927 31 90 0.0 0.0 0.00 0.00 0.00 1 1012.9
20260504181427 31 63 0.0 0.0 0.00 0.00 0.00 1 1012.9
20260504180928 31 106 0.0 0.0 0.00 0.00 0.00 1 1013.0
20260504180424 31 91 0.0 0.0 0.00 0.00 0.00 1 1013.0
20260504175925 31 116 0.0 0.0 0.00 0.00 0.00 1 1013.1
20260504175426 31 77 0.0 0.0 0.00 0.00 0.00 1 1013.1
20260504174924 31 78 0.0 0.0 0.00 0.00 0.00 1 1013.1
20260504174425 31 58 0.0 0.0 0.00 0.00 0.00 1 1013.2
20260504174154 31 91 0.0 0.0 0.00 0.00 0.00 1 1013.2
20260504173422 31 51 0.0 0.0 0.00 0.00 0.00 1 1013.2
20260504173154 31 71 0.0 0.0 0.00 0.00 0.00 1 1013.3
20260504172422 32 95 0.0 0.0 0.00 0.00 0.00 1 1013.3
20260504172156 31 51 0.0 0.0 0.00 0.00 0.00 1 1013.3
20260504171420 31 72 0.0 0.0 0.00 0.00 0.00 1 1013.3
20260504170918 31 55 0.0 0.0 0.00 0.00 0.00 1 1013.4
20260504170648 31 72 0.0 0.0 0.00 0.00 0.00 1 1013.3
20260504160314 31 79 0.0 0.0 0.00 0.00 0.00 1 1013.7
20260504150709 31 86 0.0 0.0 0.00 0.00 0.00 1 1013.9
20260504150202 31 92 0.0 0.0 0.00 0.00 0.00 1 1013.8
20260504141105 29 38 0.0 0.0 0.00 0.00 0.00 1 1013.7
20260504140558 29 359 0.0 0.0 0.00 0.00 0.00 1 1013.8
20260504130510 26 101 0.0 0.0 0.00 0.00 0.00 1 1013.4
20260504110709 -17 0.0 0.0 0.00 0.00 0.00 1012.3
20260504110205 -17 0.0 0.0 0.00 0.00 0.00 1012.2
20260504100313 26 101 0.0 0.0 0.00 0.00 0.00 1 1012.2